Date String (YYYY-MM-DD hh:mm:ss) UTC,Instrument flags,Ambient pressure (hPa),Sample flow (lpm),Bypass flow (lpm),Sample temperature (°C),Ambient temperature (°C),ASC tube jacket temperature (°C),LED temperature (°C),Box temperature (°C),Sample RH (%),Span deviation,Mass concentration (μg/m³),Mass concentration (μg/m³),Mass concentration (μg/m³)
DateTimeUTC,F1_M11,P_M11,Q1_M11,Q2_M11,T1_M11,T2_M11,T3_M11,T4_M11,T5_M11,U1_M11,ZSPAN_M11,X2_M11,X0_M11,X1_M11
2022-11-07 11:00:00,,0825.7,5.01,0.00,22.2,20.6,00.0,31.1,24.0,12.5,0000.0,0003.25,0009.54,0002.44
2022-11-07 11:01:00,,0825.7,4.98,0.00,22.2,20.4,00.0,31.1,23.9,12.6,0000.0,0003.26,0009.43,0002.44
2022-11-07 11:02:00,,0825.7,5.01,0.00,22.1,20.3,00.0,31.1,23.9,12.6,0000.0,0003.25,0009.53,0002.45
2022-11-07 11:03:00,,0825.7,5.00,0.00,22.1,20.3,00.0,31.0,23.9,12.7,0000.0,0003.26,0009.61,0002.45
2022-11-07 11:04:00,,0825.7,5.01,0.00,22.1,20.2,00.0,31.0,23.8,12.7,0000.0,0003.28,0009.62,0002.47
2022-11-07 11:05:00,,0825.7,4.98,0.00,22.1,20.2,00.0,31.0,23.8,12.7,0000.0,0003.32,0009.30,0002.47
2022-11-07 11:06:00,,0825.7,5.01,0.00,22.0,20.3,00.0,31.0,23.8,12.8,0000.0,0003.31,0009.35,0002.47
2022-11-07 11:07:00,,0825.7,5.00,0.00,22.0,20.2,00.0,30.9,23.8,12.8,0000.0,0003.31,0009.30,0002.46
2022-11-07 11:08:00,,0825.7,5.01,0.00,22.0,20.2,00.0,30.9,23.8,12.9,0000.0,0003.33,0009.35,0002.47
2022-11-07 11:09:00,,0825.7,5.01,0.00,22.0,20.3,00.0,30.9,23.8,12.9,0000.0,0003.40,0009.51,0002.48
2022-11-07 11:10:00,,0825.7,5.00,0.00,22.0,20.4,00.0,30.9,23.8,12.9,0000.0,0003.42,0009.32,0002.48
2022-11-07 11:11:00,,0825.7,4.99,0.00,22.0,20.4,00.0,30.9,23.8,12.9,0000.0,0003.44,0008.40,0002.47
2022-11-07 11:12:00,,0825.7,4.99,0.00,22.0,20.4,00.0,30.9,23.9,12.9,0000.0,0003.41,0008.12,0002.45
2022-11-07 11:13:00,,0825.7,5.01,0.00,22.0,20.4,00.0,30.8,23.8,12.9,0000.0,0003.39,0007.91,0002.44
2022-11-07 11:14:00,,0825.7,5.00,0.00,22.0,20.4,00.0,30.8,23.8,13.0,0000.0,0003.38,0007.82,0002.44
2022-11-07 11:15:00,,0825.7,5.01,0.00,22.0,20.4,00.0,30.8,23.8,13.0,0000.0,0003.38,0007.91,0002.43
2022-11-07 11:16:00,,0825.7,4.99,0.00,21.9,20.3,00.0,30.8,23.8,13.1,0000.0,0003.36,0008.25,0002.41
2022-11-07 11:17:00,,0825.7,4.99,0.00,21.9,20.5,00.0,30.8,23.8,13.0,0000.0,0003.34,0008.18,0002.42
2022-11-07 11:18:00,,0825.7,5.01,0.00,22.0,21.3,00.0,30.8,24.0,13.0,0000.0,0003.35,0007.63,0002.42
2022-11-07 11:19:00,,0825.7,5.00,0.00,22.1,22.1,00.0,30.8,24.2,12.9,0000.0,0003.31,0007.77,0002.39
2022-11-07 11:20:00,,0825.7,4.99,0.00,22.2,21.9,00.0,30.8,24.2,12.9,0000.0,0003.24,0007.90,0002.36
2022-11-07 11:21:00,,0825.7,4.99,0.00,22.2,21.6,00.0,30.9,24.2,12.8,0000.0,0003.20,0007.78,0002.35
2022-11-07 11:22:00,,0825.7,5.00,0.00,22.2,21.3,00.0,30.9,24.1,12.9,0000.0,0003.16,0007.62,0002.34
2022-11-07 11:23:00,,0825.8,5.00,0.00,22.2,21.1,00.0,30.9,24.1,12.9,0000.0,0003.15,0007.67,0002.35
2022-11-07 11:24:00,,0826.1,5.00,0.00,22.2,21.0,00.0,30.9,24.1,12.9,0000.0,0003.16,0007.68,0002.36
2022-11-07 11:25:00,,0825.8,4.99,0.00,22.2,20.9,00.0,30.9,24.1,12.9,0000.0,0003.18,0008.27,0002.37
2022-11-07 11:26:00,,0825.7,5.00,0.00,22.2,20.9,00.0,30.9,24.1,12.9,0000.0,0003.20,0009.68,0002.39
2022-11-07 11:27:00,,0825.7,5.01,0.00,22.2,20.9,00.0,30.9,24.1,12.9,0000.0,0003.23,0009.43,0002.41
2022-11-07 11:28:00,,0825.7,5.00,0.00,22.2,20.9,00.0,30.9,24.1,12.9,0000.0,0003.27,0009.41,0002.42
2022-11-07 11:29:00,,0825.7,5.01,0.00,22.2,20.9,00.0,30.9,24.1,12.9,0000.0,0003.28,0009.40,0002.43
2022-11-07 11:30:00,,0825.7,5.00,0.00,22.2,20.9,00.0,30.9,24.1,13.0,0000.0,0003.33,0009.39,0002.46
2022-11-07 11:31:00,,0825.7,4.99,0.00,22.2,20.9,00.0,31.0,24.1,13.0,0000.0,0003.34,0008.95,0002.48
2022-11-07 11:32:00,,0825.7,5.00,0.00,22.2,20.9,00.0,31.0,24.1,13.0,0000.0,0003.37,0009.48,0002.49
2022-11-07 11:33:00,,0825.7,4.99,0.00,22.2,20.8,00.0,30.9,24.1,13.0,0000.0,0003.39,0009.53,0002.53
2022-11-07 11:34:00,,0825.7,5.00,0.00,22.2,20.7,00.0,30.9,24.1,13.0,0000.0,0003.41,0010.10,0002.54
2022-11-07 11:35:00,,0825.7,5.02,0.00,22.2,20.7,00.0,30.9,24.0,13.0,0000.0,0003.43,0010.15,0002.54
2022-11-07 11:36:00,,0825.7,4.99,0.00,22.2,20.7,00.0,30.9,24.0,13.0,0000.0,0003.42,0009.82,0002.54
2022-11-07 11:37:00,,0825.7,4.99,0.00,22.2,20.8,00.0,30.9,24.0,13.1,0000.0,0003.38,0008.42,0002.53
2022-11-07 11:38:00,,0825.8,5.01,0.00,22.2,20.8,00.0,30.9,24.0,13.0,0000.0,0003.33,0007.77,0002.52
2022-11-07 11:39:00,,0825.9,5.01,0.00,22.2,20.9,00.0,30.9,24.1,13.1,0000.0,0003.28,0007.68,0002.53
2022-11-07 11:40:00,,0825.9,5.00,0.00,22.2,20.9,00.0,30.9,24.1,13.1,0000.0,0003.25,0007.68,0002.52
2022-11-07 11:41:00,,0825.9,4.99,0.00,22.2,20.9,00.0,30.9,24.1,13.0,0000.0,0003.22,0007.47,0002.52
2022-11-07 11:42:00,,0825.9,4.99,0.00,22.2,20.9,00.0,30.9,24.1,13.0,0000.0,0003.20,0007.35,0002.52
2022-11-07 11:43:00,,0825.8,4.99,0.00,22.2,20.9,00.0,30.9,24.1,13.0,0000.0,0003.20,0006.55,0002.53
2022-11-07 11:44:00,,0825.8,5.01,0.00,22.2,20.9,00.0,30.9,24.1,13.0,0000.0,0003.20,0006.92,0002.52
2022-11-07 11:45:00,,0825.8,5.01,0.00,22.2,20.9,00.0,30.9,24.1,13.0,0000.0,0003.23,0006.27,0002.51
2022-11-07 11:46:00,,0826.0,5.01,0.00,22.2,20.9,00.0,30.9,24.1,13.0,0000.0,0003.24,0007.26,0002.50
2022-11-07 11:47:00,,0826.0,4.99,0.00,22.2,20.9,00.0,30.9,24.1,13.0,0000.0,0003.25,0007.60,0002.51
2022-11-07 11:48:00,,0825.8,4.99,0.00,22.2,20.9,00.0,30.9,24.1,13.0,0000.0,0003.27,0009.29,0002.50
2022-11-07 11:49:00,,0826.1,5.01,0.00,22.2,20.9,00.0,30.9,24.1,13.0,0000.0,0003.31,0009.53,0002.49
2022-11-07 11:50:00,,0825.8,5.01,0.00,22.2,20.9,00.0,30.9,24.1,12.9,0000.0,0003.30,0009.53,0002.47
2022-11-07 11:51:00,,0825.8,4.99,0.00,22.2,20.9,00.0,30.9,24.1,12.9,0000.0,0003.33,0009.64,0002.45
2022-11-07 11:52:00,,0825.7,4.99,0.00,22.2,20.9,00.0,30.9,24.1,12.9,0000.0,0003.33,0010.00,0002.44
2022-11-07 11:53:00,,0825.7,4.99,0.00,22.2,20.9,00.0,30.9,24.1,12.9,0000.0,0003.33,0010.59,0002.42
2022-11-07 11:54:00,,0825.9,5.00,0.00,22.2,20.9,00.0,30.9,24.1,12.9,0000.0,0003.33,0010.85,0002.41
2022-11-07 11:55:00,,0825.9,5.02,0.00,22.2,21.0,00.0,30.9,24.2,12.9,0000.0,0003.34,0011.20,0002.40
2022-11-07 11:56:00,,0826.1,5.00,0.00,22.3,21.7,00.0,31.0,24.3,12.8,0000.0,0003.31,0011.13,0002.39
2022-11-07 11:57:00,,0825.9,4.99,0.00,22.4,22.3,00.0,31.0,24.5,12.7,0000.0,0003.30,0010.76,0002.39
2022-11-07 11:58:00,,0826.0,4.99,0.00,22.5,22.1,00.0,31.0,24.5,12.6,0000.0,0003.30,0011.25,0002.38
2022-11-07 11:59:00,,0826.0,5.01,0.00,22.5,22.0,00.0,31.1,24.5,12.6,0000.0,0003.33,0010.15,0002.37
